Home   Weather   Khon Kaen   Past weeks

Flag for Thailand Past Weather in Khon Kaen, Thailand — Yesterday and Last 2 Weeks

Now
75 °F

Passing clouds.


Feels Like: 73 °F
Forecast: 76 / 87 °F
Wind: 1 mph from North

Location: Khon Kaen Airport

Current Time: Aug 17, 2017 at 12:35:56 am

Latest Report: Aug 17, 2017 at 12:00 am


Visibility: N/A

Pressure: 29.77 "Hg

Humidity: 100%

Dew Point: 75 °F

Location of Khon KaenLocation

Past Weather in Khon Kaen — Graph

°F

Khon Kaen Temperature Yesterday

Maximum temperature yesterday: 90 °F (at 5:00 pm)
Minimum temperature yesterday: 73 °F (at 12:00 am)
Average temperature yesterday: 79 °F

High & Low Weather Summary for the Past Weeks

 TemperatureHumidityPressure
High97 °F (Aug 13, 3:00 pm)100% (Aug 3, 5:00 am)29.83 "Hg (Aug 3, 5:00 am)
Low72 °F (Aug 10, 5:00 pm)53% (Aug 13, 4:00 pm)29.53 "Hg (Aug 3, 4:00 pm)
Average82 °F86%29.73 "Hg
* Reported Aug 1 11:00 pm — Aug 16 11:00 pm, Khon Kaen. Weather by CustomWeather, © 2017

Note: Actual official high and low records may vary slightly from our data, if they occured in-between our weather recording intervals... More about our weather records

Advertising

Khon Kaen Weather History for the Previous 24 Hours

Scroll right to see more
 ConditionsComfort  
Time TempWeatherWind HumidityBarometerVisibility
11:00 pm
Wed, Aug 16
75 °FRain. Mostly cloudy.1 mph100%29.74 "Hg5 mi
10:00 pm75 °FLight rain. Mostly cloudy.No wind100%29.77 "Hg5 mi
9:00 pm73 °FPassing clouds.3 mph100%29.74 "HgN/A
8:00 pm75 °FThunderstorms. Mostly cloudy.13 mph94%29.71 "Hg3 mi
7:00 pm82 °FPassing clouds.3 mph89%29.68 "HgN/A
6:00 pm84 °FScattered clouds.5 mph84%29.65 "HgN/A
5:00 pm90 °FBroken clouds.2 mph71%29.65 "HgN/A
4:00 pm88 °FScattered clouds.2 mph75%29.65 "HgN/A
3:00 pm88 °FScattered clouds.3 mph75%29.65 "HgN/A
2:00 pm86 °FBroken clouds.2 mph79%29.68 "HgN/A
1:00 pm84 °FPartly sunny.3 mph84%29.71 "HgN/A
12:00 pm84 °FPartly sunny.2 mph79%29.74 "HgN/A
11:00 am82 °FBroken clouds.3 mph84%29.77 "HgN/A
10:00 am81 °FPartly sunny.3 mph94%29.77 "HgN/A
9:00 am79 °FBroken clouds.2 mph100%29.77 "HgN/A
8:00 am77 °FPartly sunny.3 mph100%29.77 "Hg6 mi
7:00 am75 °FPartly sunny.2 mph100%29.77 "Hg6 mi
5:00 am75 °FMild.No wind100%29.71 "HgN/A
4:00 am73 °FPassing clouds.2 mph100%29.71 "HgN/A
3:00 am75 °FLight rain. Overcast.5 mph100%29.71 "Hg4 mi
2:00 am75 °FThunderstorms. Overcast.6 mph100%29.71 "Hg2 mi
1:00 am75 °FStrong thunderstorms. Overcast.5 mph100%29.77 "Hg1 mi
12:00 am73 °FThunderstorms. Overcast.2 mph100%29.77 "Hg3 mi
Weather by CustomWeather, © 2017

See weather overviewHow to use our weather pages